• In Germany
  • List of Countries
  • For 7 days
  • Water Temperature
  • Satellite Maps
  • Weather Map
  • Weather Widgets
  • user-avatar
    Login

    Hourly Weather Rangpur

    Today, 23 July, Sunday

    Time Temperature Precipitation Wind Pressure Humidity
    00:00 +31°C° 0 mm 3 mps 748 mmHg 79%
    01:00 +31°C° 0.1 mm 3 mps 748 mmHg 80%
    02:00 +30°C° 0.1 mm 3 mps 748 mmHg 81%
    03:00 +30°C° 0.1 mm 3 mps 747 mmHg 82%
    04:00 +30°C° 0 mm 3 mps 747 mmHg 83%
    05:00 +30°C° 0 mm 3 mps 747 mmHg 84%
    06:00 +29°C° 0 mm 3 mps 747 mmHg 85%
    07:00 +30°C° 0.1 mm 3 mps 747 mmHg 82%
    08:00 +32°C° 0.1 mm 4 mps 747 mmHg 79%
    09:00 +32°C° 0.1 mm 4 mps 748 mmHg 76%
    10:00 +33°C° 0.7 mm 4 mps 747 mmHg 75%
    11:00 +33°C° 0.7 mm 4 mps 747 mmHg 73%
    12:00 +33°C° 0.7 mm 4 mps 747 mmHg 71%
    13:00 +34°C° 0.3 mm 4 mps 747 mmHg 68%
    14:00 +35°C° 0.3 mm 5 mps 746 mmHg 66%
    15:00 +36°C° 0.3 mm 5 mps 746 mmHg 63%
    16:00 +35°C° 0.9 mm 5 mps 746 mmHg 66%
    17:00 +34°C° 0.9 mm 5 mps 746 mmHg 69%
    18:00 +33°C° 0.9 mm 5 mps 745 mmHg 73%
    19:00 +33°C° 0.8 mm 5 mps 746 mmHg 75%
    20:00 +32°C° 0.8 mm 5 mps 747 mmHg 78%
    21:00 +30°C° 0.8 mm 4 mps 747 mmHg 80%
    22:00 +30°C° 0.1 mm 4 mps 747 mmHg 82%
    23:00 +29°C° 0.1 mm 4 mps 747 mmHg 84%

    Tomorrow, 24 July, Monday

    Time Temperature Precipitation Wind Pressure Humidity
    00:00 +29°C° 0.1 mm 3 mps 747 mmHg 86%
    01:00 +29°C° 0.2 mm 3 mps 747 mmHg 87%
    02:00 +29°C° 0.2 mm 3 mps 746 mmHg 88%
    03:00 +28°C° 0.2 mm 2 mps 746 mmHg 89%
    04:00 +28°C° 0.2 mm 2 mps 745 mmHg 88%
    05:00 +28°C° 0.2 mm 2 mps 745 mmHg 88%
    06:00 +28°C° 0.2 mm 3 mps 745 mmHg 88%
    07:00 +29°C° 0.1 mm 4 mps 746 mmHg 86%
    08:00 +29°C° 0.1 mm 6 mps 746 mmHg 83%
    09:00 +30°C° 0.1 mm 7 mps 746 mmHg 80%
    10:00 +29°C° 1 mm 8 mps 746 mmHg 82%
    11:00 +29°C° 1 mm 8 mps 746 mmHg 84%
    12:00 +29°C° 1 mm 9 mps 746 mmHg 85%
    13:00 +29°C° 0.7 mm 9 mps 746 mmHg 85%
    14:00 +29°C° 0.7 mm 9 mps 746 mmHg 84%
    15:00 +28°C° 0.7 mm 9 mps 746 mmHg 83%
    16:00 +28°C° 0.2 mm 9 mps 746 mmHg 83%
    17:00 +28°C° 0.2 mm 8 mps 746 mmHg 83%
    18:00 +28°C° 0.2 mm 7 mps 746 mmHg 83%
    19:00 +28°C° 0.7 mm 7 mps 746 mmHg 84%
    20:00 +28°C° 0.7 mm 6 mps 746 mmHg 85%
    21:00 +28°C° 0.7 mm 6 mps 747 mmHg 85%
    22:00 +28°C° 1.5 mm 6 mps 746 mmHg 86%
    23:00 +27°C° 1.5 mm 6 mps 746 mmHg 88%

    Day after tomorrow, 25 July, Tuesday

    Time Temperature Precipitation Wind Pressure Humidity
    00:00 +27°C° 1.5 mm 6 mps 746 mmHg 89%
    01:00 +27°C° 1.2 mm 6 mps 745 mmHg 89%
    02:00 +27°C° 1.2 mm 6 mps 745 mmHg 90%
    03:00 +27°C° 1.2 mm 6 mps 744 mmHg 91%
    04:00 +27°C° 0.3 mm 6 mps 744 mmHg 91%
    05:00 +27°C° 0.3 mm 6 mps 745 mmHg 91%
    06:00 +27°C° 0.3 mm 7 mps 745 mmHg 90%
    07:00 +28°C° 0.6 mm 7 mps 745 mmHg 88%
    08:00 +28°C° 0.6 mm 7 mps 745 mmHg 85%
    09:00 +29°C° 0.6 mm 7 mps 746 mmHg 82%
    10:00 +28°C° 1.5 mm 7 mps 746 mmHg 85%
    11:00 +28°C° 1.5 mm 7 mps 746 mmHg 87%
    12:00 +27°C° 1.5 mm 7 mps 746 mmHg 89%
    13:00 +28°C° 2.6 mm 7 mps 746 mmHg 90%
    14:00 +28°C° 2.6 mm 7 mps 746 mmHg 90%
    15:00 +28°C° 2.6 mm 6 mps 745 mmHg 90%
    16:00 +28°C° 2.1 mm 6 mps 746 mmHg 90%
    17:00 +27°C° 2.1 mm 6 mps 746 mmHg 91%
    18:00 +27°C° 2.1 mm 6 mps 746 mmHg 91%
    19:00 +27°C° 0.4 mm 6 mps 747 mmHg 91%
    20:00 +27°C° 0.4 mm 5 mps 747 mmHg 91%
    21:00 +27°C° 0.4 mm 5 mps 748 mmHg 91%
    22:00 +27°C° 0.3 mm 5 mps 748 mmHg 91%
    23:00 +27°C° 0.3 mm 5 mps 748 mmHg 92%

    26 July, Wednesday

    Time Temperature Precipitation Wind Pressure Humidity
    00:00 +27°C° 0.3 mm 5 mps 748 mmHg 92%
    01:00 +27°C° 0.9 mm 5 mps 748 mmHg 92%
    02:00 +27°C° 0.9 mm 4 mps 747 mmHg 92%
    03:00 +27°C° 0.9 mm 4 mps 747 mmHg 92%
    04:00 +27°C° 0.4 mm 4 mps 747 mmHg 92%
    05:00 +27°C° 0.4 mm 4 mps 748 mmHg 92%
    06:00 +27°C° 0.4 mm 4 mps 748 mmHg 92%
    07:00 +27°C° 0.4 mm 4 mps 748 mmHg 91%
    08:00 +27°C° 0.4 mm 4 mps 749 mmHg 90%
    09:00 +28°C° 0.4 mm 4 mps 749 mmHg 89%
    10:00 +28°C° 0.3 mm 4 mps 749 mmHg 86%
    11:00 +29°C° 0.3 mm 4 mps 749 mmHg 84%
    12:00 +30°C° 0.3 mm 3 mps 749 mmHg 81%
    13:00 +31°C° 0.4 mm 3 mps 749 mmHg 76%
    14:00 +32°C° 0.4 mm 2 mps 748 mmHg 72%
    15:00 +34°C° 0.4 mm 2 mps 747 mmHg 67%
    16:00 +33°C° 0.1 mm 1 mps 747 mmHg 68%
    17:00 +33°C° 0.1 mm 1 mps 747 mmHg 69%
    18:00 +33°C° 0.1 mm 1 mps 746 mmHg 70%
    19:00 +32°C° 0 mm 1 mps 747 mmHg 72%
    20:00 +31°C° 0 mm 1 mps 748 mmHg 75%
    21:00 +31°C° 0 mm 1 mps 748 mmHg 78%
    22:00 +30°C° 0.8 mm 1 mps 748 mmHg 80%
    23:00 +30°C° 0.8 mm 1 mps 748 mmHg 83%

    27 July, Thursday

    Time Temperature Precipitation Wind Pressure Humidity
    00:00 +29°C° 0.8 mm 1 mps 748 mmHg 85%
    01:00 +29°C° 1.4 mm 1 mps 748 mmHg 87%
    02:00 +29°C° 1.4 mm 1 mps 748 mmHg 88%
    03:00 +28°C° 1.4 mm 1 mps 748 mmHg 90%
    04:00 +28°C° 0.4 mm 1 mps 748 mmHg 89%
    05:00 +29°C° 0.4 mm 1 mps 748 mmHg 89%
    06:00 +29°C° 0.4 mm 1 mps 748 mmHg 89%
    07:00 +30°C° 0.2 mm 1 mps 748 mmHg 83%
    08:00 +31°C° 0.2 mm 2 mps 749 mmHg 77%
    09:00 +32°C° 0.2 mm 2 mps 749 mmHg 72%
    10:00 +35°C° 0.3 mm 2 mps 749 mmHg 67%
    11:00 +36°C° 0.3 mm 2 mps 749 mmHg 63%
    12:00 +37°C° 0.3 mm 2 mps 748 mmHg 58%
    13:00 +37°C° 0.1 mm 2 mps 748 mmHg 57%
    14:00 +37°C° 0.1 mm 2 mps 747 mmHg 56%
    15:00 +37°C° 0.1 mm 2 mps 747 mmHg 55%
    16:00 +37°C° 0 mm 2 mps 746 mmHg 57%
    17:00 +37°C° 0 mm 2 mps 746 mmHg 60%
    18:00 +36°C° 0 mm 2 mps 746 mmHg 62%
    19:00 +36°C° 0 mm 2 mps 747 mmHg 64%
    20:00 +35°C° 0 mm 2 mps 747 mmHg 66%
    21:00 +34°C° 0 mm 2 mps 748 mmHg 67%
    22:00 +34°C° 0.2 mm 2 mps 748 mmHg 69%
    23:00 +32°C° 0.2 mm 2 mps 748 mmHg 71%

    28 July, Friday

    Time Temperature Precipitation Wind Pressure Humidity
    00:00 +32°C° 0.2 mm 2 mps 748 mmHg 74%
    01:00 +31°C° 1.1 mm 2 mps 748 mmHg 76%
    02:00 +31°C° 1.1 mm 2 mps 747 mmHg 78%
    03:00 +31°C° 1.1 mm 2 mps 747 mmHg 81%
    04:00 +31°C° 2.2 mm 2 mps 747 mmHg 82%
    05:00 +30°C° 2.2 mm 2 mps 748 mmHg 82%
    06:00 +30°C° 2.2 mm 2 mps 748 mmHg 83%
    07:00 +31°C° 1.4 mm 2 mps 748 mmHg 79%
    08:00 +33°C° 1.4 mm 3 mps 749 mmHg 75%
    09:00 +34°C° 1.4 mm 3 mps 749 mmHg 70%
    10:00 +35°C° 1.6 mm 3 mps 749 mmHg 68%
    11:00 +35°C° 1.6 mm 3 mps 749 mmHg 67%
    12:00 +36°C° 1.6 mm 3 mps 748 mmHg 65%
    13:00 +36°C° 0.7 mm 3 mps 748 mmHg 64%
    14:00 +36°C° 0.7 mm 3 mps 747 mmHg 63%
    15:00 +36°C° 0.7 mm 3 mps 747 mmHg 62%
    16:00 +36°C° 0.5 mm 3 mps 747 mmHg 66%
    17:00 +35°C° 0.5 mm 3 mps 747 mmHg 70%
    18:00 +34°C° 0.5 mm 3 mps 747 mmHg 74%
    19:00 +33°C° 1.1 mm 3 mps 747 mmHg 77%
    20:00 +33°C° 1.1 mm 3 mps 748 mmHg 80%
    21:00 +31°C° 1.1 mm 3 mps 749 mmHg 83%
    22:00 +30°C° 1.4 mm 3 mps 749 mmHg 84%
    23:00 +30°C° 1.4 mm 3 mps 749 mmHg 84%
    Show more